SATCOM 3 DEB, 32984

Orbit data source: Space-Track

SATCOM 3 DEB, 32984 is space debris in HEO originally from a launch on Fri, 07 Dec 1979 UTC launched from the Air Force Eastern Test Range (AFETR). Debris objects in space refer to the collection of defunct objects orbiting the Earth. Examples of debris include non-operational satellites, rocket bodies, and fragments generated from explosions, collisions, or faulty payload assembly.

Not visible in the next 10 days
Identifier
32984, 1979-101K
Orbit
HEO
Country
Flag of USUS
Related business
Manufacturer
Unknown
Mission
Spacecraft
Bus & Motor
Unknown
Mass
Unknown
Launch date (UTC)
1979-12-07 (47 years ago)
Launch vehicle
Unknown
Launch site
Air Force Eastern Test Range (AFETR)
Object type
Payload
Rocket body
Debris
Shape & HBR
Unknown shape, 1.1 m
Radar Cross Section
Medium (>0.1 m² and <1 m²)

Expand to show TLE details & history
Last TLE update: 3 days ago

TLE from 3 days ago
0 SATCOM 3 DEB
1 32984U 79101K   26166.35648336 -.00000076  00000-0  00000-0 0  9997
2 32984   9.6099  75.2257 4830177 112.9854  18.6511  1.82633102 89644
Epoch: 2026-06-15T08:33Z
TLE epoch observation values (Epoch: 2026-06-15T08:33:20.162Z)
Latitude
2.00573°
Longitude
-148.81817°
Altitude
10,601.044 km
Speed
5.732 km/s
True Right ascension
16h 12m 38s
True Declination
2° 00' 02"
Sunlit
Object was in daylight at epoch
Visualization orbit readout
Latitude
Unknown
Longitude
Unknown
Altitude
Unknown
Speed
Unknown
Apparent Right ascension
Unknown
Apparent Declination
Unknown
Sunlit
N/A
Visualization observer readout
Local Sidereal Time
13:04:48
Azimuth
Unknown
Elevation
Unknown
Doppler factor
Unknown
Orbital elements
Apogee altitude
35,552.321 km
Perigee altitude
8,238.886 km
Semi-major axis
28,273.74 km
Eccentricity
0.48302
Inclination
9.6099°
RAAN
75.2257°
Arg. of periapsis
112.9854°
True anomaly
55.05966°
Mean anomaly
18.6511°
Eccentric anomaly
34.21114°
Mean motion
0.45653 °/min
Orbital period
788.56 mins
BSTAR
0
Loading maneuver chart data...
Computing Atmospheric mass density...
Loading historical data...
Loading historical data...
Loading historical data...
Loading historical data...
Loading historical data...
Loading historical data...
Loading historical data...

Documentation

Showing up to 5 results
|